Ithaca, NY

7:33 PM EDT on April 24, 2017 (GMT -0400)
Tompkins County

Weather History for KITH - August, 2013

Change the Weather History Date:

Tuesday, August 13, 2013

  Actual Average Record
Temperature  
Mean Temperature 64 °F -  
Max Temperature 74 °F 76 °F 95 °F (1944)
Min Temperature 54 °F 54 °F 40 °F (1930)
Growing Degree Days 14 (Base 50)    
Moisture  
Dew Point 60 °F    
Average Humidity 81    
Maximum Humidity 97    
Minimum Humidity 67    
Precipitation  
Precipitation 0.55 in - - ()
Sea Level Pressure  
Sea Level Pressure 29.81 in    
Wind  
Wind Speed 7 mph (WNW)    
Max Wind Speed 25 mph    
Max Gust Speed 36 mph    
Visibility 9 miles    
Events Rain , Thunderstorm    
Averages and records for this station are not official NWS values.
T = Trace of Precipitation, MM = Missing Value Source: NWS Daily Summary

Daily Weather History Graph

Daily Weather History Graph

Search for Another Location

Airport or City:

Trip Planner

Search our weather history database for the weather conditions in past years. The results will help you decide how hot, cold, wet, or windy it might be!

Date:

Astronomy

Aug. 13, 2013 Rise Set
Actual Time 6:10 AM EDT 8:09 PM EDT
Civil Twilight 5:40 AM EDT 8:40 PM EDT
Nautical Twilight 5:02 AM EDT 9:17 PM EDT
Astronomical Twilight 4:22 AM EDT 9:57 PM EDT
Moon 1:13 PM EDT (8/13) 11:32 PM EDT (8/13)
Length of Visible Light 14h 59m
Length of Day
13h 58m
Waxing Crescent, 41% of the Moon is Illuminated
Aug 13
Waxing Crescent
Aug 14
First Quarter
Aug 20
Full
Aug 28
Last Quarter
Sep 5
New

Hourly Weather History & Observations

Time (EDT) Temp. Dew Point Humidity Pressure Visibility Wind Dir Wind Speed Gust Speed Precip Events Conditions
12:56 AM 65.8 °F 59.9 °F 81% 29.90 in 10.0 mi South 5.8 mph - N/A   Overcast
1:56 AM 65.8 °F 59.9 °F 81% 29.87 in 10.0 mi South 5.8 mph - N/A   Overcast
2:56 AM 65.8 °F 59.9 °F 81% 29.84 in 10.0 mi South 3.5 mph - N/A   Overcast
3:56 AM 63.9 °F 61.0 °F 90% 29.82 in 10.0 mi Calm Calm - N/A   Overcast
4:56 AM 63.9 °F 61.0 °F 90% 29.82 in 9.0 mi North 5.8 mph - 0.00 in Rain Light Rain
5:22 AM 62.6 °F 60.8 °F 94% 29.84 in 10.0 mi NNE 6.9 mph - 0.03 in Rain , Thunderstorm Rain
6:56 AM 61.9 °F 61.0 °F 97% 29.81 in 4.0 mi SE 3.5 mph - 0.21 in Rain Light Rain
7:56 AM 61.9 °F 61.0 °F 97% 29.78 in 10.0 mi ESE 4.6 mph - 0.00 in   Mostly Cloudy
8:56 AM 64.9 °F 61.9 °F 90% 29.79 in 10.0 mi SSW 4.6 mph - N/A   Mostly Cloudy
9:38 AM 68.0 °F 62.6 °F 83% 29.80 in 10.0 mi South 6.9 mph - N/A   Mostly Cloudy
9:56 AM 68.0 °F 63.0 °F 84% 29.80 in 10.0 mi South 8.1 mph - N/A   Mostly Cloudy
10:56 AM 68.9 °F 63.9 °F 84% 29.80 in 10.0 mi WSW 5.8 mph - N/A   Overcast
11:56 AM 70.9 °F 61.9 °F 73% 29.79 in 10.0 mi SW 5.8 mph - N/A   Overcast
12:39 PM 73.4 °F 62.6 °F 69% 29.79 in 10.0 mi SW 5.8 mph - N/A   Mostly Cloudy
12:56 PM 73.9 °F 63.9 °F 71% 29.77 in 10.0 mi Variable 6.9 mph - N/A   Mostly Cloudy
1:56 PM 73.9 °F 63.9 °F 71% 29.76 in 10.0 mi West 5.8 mph - N/A   Mostly Cloudy
2:56 PM 72.9 °F 63.0 °F 71% 29.76 in 10.0 mi WNW 9.2 mph - N/A   Mostly Cloudy
3:00 PM 71.6 °F 62.6 °F 73% 29.78 in 6.0 mi NW 25.3 mph 35.7 mph 0.04 in Rain Heavy Rain
3:06 PM 69.8 °F 64.4 °F 83% 29.79 in 1.0 mi NW 18.4 mph 35.7 mph 0.22 in Rain Heavy Rain
3:21 PM 64.4 °F 62.6 °F 94% 29.79 in 4.0 mi NNW 11.5 mph - 0.34 in Rain Light Rain
3:56 PM 65.8 °F 63.0 °F 90% 29.78 in 6.0 mi NNW 3.5 mph - 0.34 in   Mostly Cloudy
4:56 PM 68.9 °F 64.9 °F 87% 29.77 in 8.0 mi WNW 4.6 mph - 0.00 in   Mostly Cloudy
5:33 PM 69.8 °F 64.4 °F 83% 29.79 in 10.0 mi NW 6.9 mph - 0.00 in   Mostly Cloudy
5:56 PM 68.9 °F 63.0 °F 81% 29.78 in 10.0 mi NNW 10.4 mph - 0.00 in   Mostly Cloudy
6:56 PM 68.0 °F 56.8 °F 67% 29.80 in 10.0 mi WNW 13.8 mph - N/A   Mostly Cloudy
7:56 PM 63.9 °F 52.9 °F 67% 29.82 in 10.0 mi NW 12.7 mph - N/A   Scattered Clouds
8:56 PM 61.9 °F 50.9 °F 67% 29.85 in 10.0 mi NNW 12.7 mph 19.6 mph N/A   Mostly Cloudy
9:56 PM 59.0 °F 48.9 °F 69% 29.87 in 10.0 mi NNW 10.4 mph - N/A   Mostly Cloudy
10:56 PM 56.8 °F 47.8 °F 72% 29.88 in 10.0 mi NW 9.2 mph - N/A   Mostly Cloudy
11:56 PM 54.9 °F 47.8 °F 77% 29.88 in 10.0 mi NW 5.8 mph - N/A   Mostly Cloudy